Regional Weather Roundup
Issued by NWS Albany, NY

Home | Current Version | Previous Version | Text Only | Print | Product List | Glossary Off
Versions: 1 2 3 4 5 6 7 8 9 10 11 12 13 14 15 16 17 18 19 20 21 22 23 24 25 26 27 28 29 30 31 32 33 34 35 36 37 38 39 40 41 42 43 44 45 46 47 48 49 50

000
ASUS41 KALY 280510
RWRALY

NEW YORK STATE HOURLY WEATHER ROUNDUP
NATIONAL WEATHER SERVICE ALBANY NY
100 AM EDT TUE MAR 28 2017

NOTE: "FAIR" INDICATES FEW OR NO CLOUDS BELOW 12,000 FEET WITH NO
SIGNIFICANT WEATHER AND/OR NO OBSTRUCTIONS TO VISIBILITY.

NYZ032-033-038>043-046>054-057>066-NYZ062>081-082-084-280600-
EAST


CITY           SKY/WX    TMP DP  RH WIND       PRES   REMARKS
ALBANY         CLOUDY    44  40  85 S3        29.98S
GLENS FALLS    FOG       36  34  92 CALM      29.98F VSB 1/2
POUGHKEEPSIE   CLOUDY    37  37 100 CALM      29.97F
NEWBURGH       CLOUDY    43  43 100 CALM      29.99F
MONTGOMERY     CLOUDY    39  39 100 CALM      29.97F FOG
WHITE PLAINS   FOG       40  39  97 E6        29.99S VSB 1/2
ISLIP          FOG       43  43 100 NE6       30.00F VSB 1/4
NEW YORK CITY  CLOUDY    42  39  89 NE10      29.99F
CENTRAL PARK   CLOUDY    46  44  93 NE6       30.01F FOG
$$

NYZ005>009-017-018-044>046-055-056-280600-
CENTRAL


CITY           SKY/WX    TMP DP  RH WIND       PRES   REMARKS
FULTON         CLOUDY    41  39  93 SE3       29.92S
SYRACUSE       CLOUDY    40  38  93 E5        29.92S
ROME           CLOUDY    39  38  96 SE7       29.95F WCI  34
ELMIRA         CLOUDY    49  46  90 CALM      29.92S
BINGHAMTON     CLOUDY    46  44  93 S3        29.92F
MONTICELLO     CLOUDY    39  39 100 CALM      29.98F
$$

NYZ026>034-041>043-087-280600-
NORTH


CITY           SKY/WX    TMP DP  RH WIND       PRES   REMARKS
WATERTOWN      CLOUDY    49  47  93 S5        29.90S
FORT DRUM      NOT AVBL
MASSENA        FOG       36  35  96 CALM      29.91F VSB 1/4
SARANAC LAKE   FOG       41  41 100 SW8       29.89R VSB 1/2
PLATTSBURGH    CLOUDY    36  34  92 SE6       29.93S WCI  31
$$

NYZ001>004-010>016-019>021-085-280600-
WEST


CITY           SKY/WX    TMP DP  RH WIND       PRES   REMARKS
NIAGARA FALLS  CLOUDY    49  44  83 SW7       29.90S
BUFFALO        MOCLDY    46  43  89 SW8       29.90S
DUNKIRK        PTCLDY    48  46  93 S6        29.91S
JAMESTOWN      CLOUDY    46  45  93 CALM      29.91S
WELLSVILLE     FOG       49  47  93 SE3       29.92F VSB 1/4
ROCHESTER      CLOUDY    51  46  83 SW5       29.90S
PENN YAN       CLOUDY    50  46  86 CALM      29.92F
$$

             KEY
       WCI = WIND CHILL INDEX
       VSB = VISIBILITY
       HX  = HEAT INDEX
$$



USA.gov is the U.S. government's official web portal to all federal, state and local government web resources and services.